{"data":{"norad_id":53655,"intl_designator":"2022-105H","name":"STARLINK-4470","alt_names":[],"object_type":"PAYLOAD","status":"ACTIVE","operator":null,"country":"US","launch_date":"2022-08-31","launch_site_code":"AFWTR","launch_vehicle":null,"mission":null,"orbit_class":"UNKNOWN","rcs_meters":null,"size_class":null,"mass_kg":null,"dimensions":null,"purposes":["comms"],"wikipedia_slug":null,"has_3d_model":false,"image_url":null,"decayed_at":null,"tle_current":{"epoch":"2026-09-20T22:04:31.279872Z","epoch_age_seconds":45427,"freshness":"FRESH","line1":"1 53655U 22105H   26263.91980648 -.00002210  00000+0 -58922-4 0  9994","line2":"2 53655  97.4891 152.3682 0001353  88.9915 271.1484 15.36979759223266","mean_motion":15.36979759,"eccentricity":0.0001353,"inclination_deg":97.4891,"raan_deg":152.3682,"arg_perigee_deg":88.9915,"mean_anomaly_deg":271.1484,"bstar":-5.8922e-5,"rev_number":22326,"period_min":93.690238376132,"perigee_km":454.12184987164,"apogee_km":455.97090929416,"semimajor_km":6833.1833795829,"source":"CELESTRAK","updated_at":"2026-09-21T09:00:32.950599Z"}}}